Home > Weather > Coimbra > Past weeks

Flag for Portugal Past Weather in Coimbra, Portugal — Yesterday and Last 2 Weeks

Now
59 °F

Sprinkles. Partly sunny.


Feels Like: 56 °F
Forecast: 51 / 60 °F
Wind: 14 mph from South

Location: Porto / Pedras Rubras

Current Time: May 28, 2016 at 9:03:22 AM

Latest Report: May 28, 2016 at 8:30 AM


Visibility: N/A

Pressure: 29.89 "Hg

Humidity: 94%

Dew Point: 57 °F

Location of CoimbraLocation

Past Weather in Coimbra — Graph

°F

Coimbra Temperature Yesterday

Maximum temperature yesterday: 68 °F (at 12:00 PM)
Minimum temperature yesterday: 55 °F (at 4:00 AM)
Average temperature yesterday: 62 °F

High & Low Weather Summary for the Past Weeks

 TemperatureHumidityPressure
High73 °F (May 23, 1:00 PM)100% (May 13, 8:30 AM)30.27 "Hg (May 13, 8:30 AM)
Low48 °F (May 23, 2:30 AM)31% (May 23, 1:00 PM)29.83 "Hg (May 24, 10:00 AM)
Average59 °F85%30.06 "Hg
* Reported May 13 7:00 AM — May 28 7:30 AM, Coimbra, Weather by CustomWeather, © 2016

Note: Actual official high and low records may vary slightly from our data, if they occured in-between our weather recording intervals... More about our weather records

Advertising

Coimbra Weather History for the Previous 24 Hours

Scroll right to see more
 ConditionsComfort  
Time TempWeatherWind HumidityBarometerVisibility
7:30 AM
Sat, May 28
57 °FRain showers. Broken clouds.10 mph94%29.89 "Hg1 mi
7:00 AM61 °FSprinkles. Passing clouds.14 mph88%29.89 "HgN/A
6:30 AM57 °FPartly cloudy.12 mph94%29.89 "HgN/A
6:00 AM57 °FSprinkles. Passing clouds.5 mph88%29.89 "Hg5 mi
5:30 AM61 °FSprinkles. Passing clouds.14 mph88%29.89 "HgN/A
5:00 AM61 °FSprinkles. Passing clouds.14 mph88%29.89 "HgN/A
4:30 AM61 °FSprinkles. Passing clouds.14 mph88%29.89 "HgN/A
4:00 AM61 °FPassing clouds.15 mph88%29.89 "HgN/A
3:30 AM61 °FPassing clouds.15 mph88%29.92 "HgN/A
3:00 AM61 °FPassing clouds.12 mph88%29.92 "HgN/A
2:30 AM61 °FPartly cloudy.13 mph94%29.92 "HgN/A
2:00 AM61 °FSprinkles. Passing clouds.14 mph94%29.95 "Hg5 mi
1:30 AM63 °FSprinkles. Passing clouds.14 mph88%29.95 "Hg5 mi
1:00 AM63 °FPassing clouds.13 mph88%29.95 "HgN/A
12:30 AM63 °FSprinkles. Partly cloudy.10 mph88%29.95 "HgN/A
12:00 AM63 °FPartly cloudy.13 mph88%29.95 "HgN/A
11:30 PM
Fri, May 27
63 °FPassing clouds.12 mph88%29.95 "HgN/A
11:00 PM63 °FPassing clouds.12 mph88%29.95 "HgN/A
10:30 PM63 °FPassing clouds.10 mph88%29.98 "HgN/A
10:00 PM63 °FPartly cloudy.12 mph88%29.95 "HgN/A
9:30 PM63 °FBroken clouds.12 mph88%29.95 "HgN/A
9:00 PM63 °FScattered clouds.9 mph88%29.95 "HgN/A
8:30 PM63 °FBroken clouds.9 mph88%29.95 "HgN/A
8:00 PM63 °FBroken clouds.12 mph88%29.95 "HgN/A
7:30 PM64 °FBroken clouds.12 mph83%29.95 "HgN/A
7:00 PM64 °FPartly sunny.12 mph83%29.95 "HgN/A
6:30 PM64 °FPartly sunny.13 mph83%29.95 "HgN/A
6:00 PM66 °FPartly sunny.12 mph78%29.95 "HgN/A
5:30 PM66 °FPartly sunny.13 mph78%29.95 "HgN/A
5:00 PM66 °FPartly sunny.14 mph73%29.95 "HgN/A
4:30 PM68 °FPassing clouds.14 mph73%29.95 "HgN/A
4:00 PM68 °FPassing clouds.15 mph69%29.95 "HgN/A
3:30 PM68 °FPassing clouds.13 mph64%29.95 "HgN/A
3:00 PM68 °FPassing clouds.15 mph60%29.95 "HgN/A
2:30 PM68 °FPassing clouds.16 mph60%29.95 "HgN/A
2:00 PM68 °FPassing clouds.16 mph64%29.95 "HgN/A
1:30 PM68 °FPassing clouds.14 mph64%29.95 "HgN/A
1:00 PM68 °FPassing clouds.16 mph60%29.95 "HgN/A
12:30 PM68 °FPassing clouds.14 mph64%29.95 "HgN/A
12:00 PM68 °FPassing clouds.15 mph60%29.95 "HgN/A
11:30 AM66 °FPassing clouds.14 mph64%29.95 "HgN/A
11:00 AM66 °FPassing clouds.16 mph64%29.95 "HgN/A
10:30 AM66 °FPassing clouds.17 mph64%29.95 "HgN/A
10:00 AM66 °FPassing clouds.13 mph64%29.95 "HgN/A
9:30 AM64 °FScattered clouds.14 mph73%29.92 "HgN/A
9:00 AM63 °FPassing clouds.12 mph77%29.92 "HgN/A
Weather by CustomWeather, © 2016

See weather overviewHow to use our weather pages